Year,Month,Day,Hour,Minute,Value (Times are PST for temperature in C)
2022,07,29,00,00,18.70
2022,07,29,00,01,18.70
2022,07,29,00,02,18.70
2022,07,29,00,03,18.60
2022,07,29,00,04,18.60
2022,07,29,00,05,18.60
2022,07,29,00,06,18.60
2022,07,29,00,07,18.60
2022,07,29,00,08,18.60
2022,07,29,00,09,18.60
2022,07,29,00,10,18.60
2022,07,29,00,11,18.50
2022,07,29,00,12,18.50
2022,07,29,00,13,18.50
2022,07,29,00,14,18.50
2022,07,29,00,15,18.50
2022,07,29,00,16,18.50
2022,07,29,00,17,18.50
2022,07,29,00,18,18.40
2022,07,29,00,19,18.40
2022,07,29,00,20,18.40
2022,07,29,00,21,18.40
2022,07,29,00,22,18.40
2022,07,29,00,23,18.50
2022,07,29,00,24,18.50
2022,07,29,00,25,18.50
2022,07,29,00,26,18.40
2022,07,29,00,27,18.40
2022,07,29,00,28,18.40
2022,07,29,00,29,18.40
2022,07,29,00,30,18.40
2022,07,29,00,31,18.40
2022,07,29,00,32,18.40
2022,07,29,00,33,18.40
2022,07,29,00,34,18.40
2022,07,29,00,35,18.40
2022,07,29,00,36,18.40
2022,07,29,00,37,18.40
2022,07,29,00,38,18.40
2022,07,29,00,39,18.40
2022,07,29,00,40,18.30
2022,07,29,00,41,18.30
2022,07,29,00,42,18.30
2022,07,29,00,43,18.30
2022,07,29,00,44,18.30
2022,07,29,00,45,18.30
2022,07,29,00,46,18.30
2022,07,29,00,47,18.30
2022,07,29,00,48,18.30
2022,07,29,00,49,18.30
2022,07,29,00,50,18.30
2022,07,29,00,51,18.20
2022,07,29,00,52,18.20
2022,07,29,00,53,18.20
2022,07,29,00,54,18.20
2022,07,29,00,55,18.20
2022,07,29,00,56,18.20
2022,07,29,00,57,18.20
2022,07,29,00,58,18.20
2022,07,29,00,59,18.20
2022,07,29,01,00,18.20
2022,07,29,01,01,18.20
2022,07,29,01,02,18.20
2022,07,29,01,03,18.20
2022,07,29,01,04,18.20
2022,07,29,01,05,18.20
2022,07,29,01,06,18.20
2022,07,29,01,07,18.20
2022,07,29,01,08,18.20
2022,07,29,01,09,18.20
2022,07,29,01,10,18.20
2022,07,29,01,11,18.10
2022,07,29,01,12,18.10
2022,07,29,01,13,18.10
2022,07,29,01,14,18.10
2022,07,29,01,15,18.10
2022,07,29,01,16,18.10
2022,07,29,01,17,18.10
2022,07,29,01,18,18.10
2022,07,29,01,19,18.10
2022,07,29,01,20,18.10
2022,07,29,01,21,18.10
2022,07,29,01,22,18.10
2022,07,29,01,23,18.10
2022,07,29,01,24,18.10
2022,07,29,01,25,18.10
2022,07,29,01,26,18.00
2022,07,29,01,27,18.00
2022,07,29,01,28,18.00
2022,07,29,01,29,18.00
2022,07,29,01,30,18.00
2022,07,29,01,31,18.00
2022,07,29,01,32,18.00
2022,07,29,01,33,18.00
2022,07,29,01,34,18.00
2022,07,29,01,35,17.90
2022,07,29,01,36,17.90
2022,07,29,01,37,17.90
2022,07,29,01,38,17.90
2022,07,29,01,39,17.90
2022,07,29,01,40,17.90
2022,07,29,01,41,17.90
2022,07,29,01,42,17.90
2022,07,29,01,43,17.90
2022,07,29,01,44,17.90
2022,07,29,01,45,17.90
2022,07,29,01,46,17.80
2022,07,29,01,47,17.80
2022,07,29,01,48,17.80
2022,07,29,01,49,17.80
2022,07,29,01,50,17.80
2022,07,29,01,51,17.80
2022,07,29,01,52,17.80
2022,07,29,01,53,17.80
2022,07,29,01,54,17.80
2022,07,29,01,55,17.80
2022,07,29,01,56,17.70
2022,07,29,01,57,17.70
2022,07,29,01,58,17.70
2022,07,29,01,59,17.70
2022,07,29,02,00,17.70
2022,07,29,02,01,17.70
2022,07,29,02,02,17.70
2022,07,29,02,03,17.70
2022,07,29,02,04,17.70
2022,07,29,02,05,17.60
2022,07,29,02,06,17.60
2022,07,29,02,07,17.60
2022,07,29,02,08,17.60
2022,07,29,02,09,17.60
2022,07,29,02,10,17.60
2022,07,29,02,11,17.50
2022,07,29,02,12,17.50
2022,07,29,02,13,17.50
2022,07,29,02,14,17.40
2022,07,29,02,15,17.40
2022,07,29,02,16,17.40
2022,07,29,02,17,17.40
2022,07,29,02,18,17.40
2022,07,29,02,19,17.40
2022,07,29,02,20,17.40
2022,07,29,02,21,17.30
2022,07,29,02,22,17.30
2022,07,29,02,23,17.30
2022,07,29,02,24,17.30
2022,07,29,02,25,17.30
2022,07,29,02,26,17.30
2022,07,29,02,27,17.30
2022,07,29,02,28,17.30
2022,07,29,02,29,17.30
2022,07,29,02,30,17.20
2022,07,29,02,31,17.20
2022,07,29,02,32,17.20
2022,07,29,02,33,17.20
2022,07,29,02,34,17.20
2022,07,29,02,35,17.20
2022,07,29,02,36,17.20
2022,07,29,02,37,17.20
2022,07,29,02,38,17.10
2022,07,29,02,39,17.10
2022,07,29,02,40,17.10
2022,07,29,02,41,17.10
2022,07,29,02,42,17.10
2022,07,29,02,43,17.10
2022,07,29,02,44,17.00
2022,07,29,02,45,17.00
2022,07,29,02,46,17.00
2022,07,29,02,47,17.00
2022,07,29,02,48,16.90
2022,07,29,02,49,16.90
2022,07,29,02,50,16.90
2022,07,29,02,51,16.90
2022,07,29,02,52,16.90
2022,07,29,02,53,16.90
2022,07,29,02,54,16.80
2022,07,29,02,55,16.80
2022,07,29,02,56,16.80
2022,07,29,02,57,16.80
2022,07,29,02,58,16.80
2022,07,29,02,59,16.70
2022,07,29,03,00,16.70
2022,07,29,03,01,16.70
2022,07,29,03,02,16.70
2022,07,29,03,03,16.70
2022,07,29,03,04,16.60
2022,07,29,03,05,16.60
2022,07,29,03,06,16.60
2022,07,29,03,07,16.60
2022,07,29,03,08,16.50
2022,07,29,03,09,16.50
2022,07,29,03,10,16.50
2022,07,29,03,11,16.40
2022,07,29,03,12,16.40
2022,07,29,03,13,16.40
2022,07,29,03,14,16.40
2022,07,29,03,15,16.30
2022,07,29,03,16,16.30
2022,07,29,03,17,16.30
2022,07,29,03,18,16.30
2022,07,29,03,19,16.30
2022,07,29,03,20,16.30
2022,07,29,03,21,16.20
2022,07,29,03,22,16.20
2022,07,29,03,23,16.20
2022,07,29,03,24,16.20
2022,07,29,03,25,16.20
2022,07,29,03,26,16.20
2022,07,29,03,27,16.20
2022,07,29,03,28,16.10
2022,07,29,03,29,16.10
2022,07,29,03,30,16.10
2022,07,29,03,31,16.10
2022,07,29,03,32,16.10
2022,07,29,03,33,16.10
2022,07,29,03,34,16.10
2022,07,29,03,35,16.00
2022,07,29,03,36,16.00
2022,07,29,03,37,16.00
2022,07,29,03,38,16.00
2022,07,29,03,39,15.90
2022,07,29,03,40,15.90
2022,07,29,03,41,15.90
2022,07,29,03,42,15.90
2022,07,29,03,43,15.90
2022,07,29,03,44,15.80
2022,07,29,03,45,15.80
2022,07,29,03,46,15.80
2022,07,29,03,47,15.80
2022,07,29,03,48,15.80
2022,07,29,03,49,15.80
2022,07,29,03,50,15.80
2022,07,29,03,51,15.70
2022,07,29,03,52,15.70
2022,07,29,03,53,15.70
2022,07,29,03,54,15.70
2022,07,29,03,55,15.70
2022,07,29,03,56,15.70
2022,07,29,03,57,15.70
2022,07,29,03,58,15.70
2022,07,29,03,59,15.70
2022,07,29,04,00,15.70
2022,07,29,04,01,15.60
2022,07,29,04,02,15.60
2022,07,29,04,03,15.60
2022,07,29,04,04,15.60
2022,07,29,04,05,15.60
2022,07,29,04,06,15.60
2022,07,29,04,07,15.60
2022,07,29,04,08,15.60
2022,07,29,04,09,15.60
2022,07,29,04,10,15.60
2022,07,29,04,11,15.60
2022,07,29,04,12,15.60
2022,07,29,04,13,15.60
2022,07,29,04,14,15.60
2022,07,29,04,15,15.60
2022,07,29,04,16,15.60
2022,07,29,04,17,15.60
2022,07,29,04,18,15.60
2022,07,29,04,19,15.60
2022,07,29,04,20,15.60
2022,07,29,04,21,15.60
2022,07,29,04,22,15.60
2022,07,29,04,23,15.60
2022,07,29,04,24,15.60
2022,07,29,04,25,15.60
2022,07,29,04,26,15.60
2022,07,29,04,27,15.50
2022,07,29,04,28,15.50
2022,07,29,04,29,15.50
2022,07,29,04,30,15.50
2022,07,29,04,31,15.50
2022,07,29,04,32,15.50
2022,07,29,04,33,15.50
2022,07,29,04,34,15.50
2022,07,29,04,35,15.40
2022,07,29,04,36,15.40
2022,07,29,04,37,15.50
2022,07,29,04,38,15.50
2022,07,29,04,39,15.50
2022,07,29,04,40,15.50
2022,07,29,04,41,15.50
2022,07,29,04,42,15.50
2022,07,29,04,43,15.50
2022,07,29,04,44,15.50
2022,07,29,04,45,15.60
2022,07,29,04,46,15.60
2022,07,29,04,47,15.60
2022,07,29,04,48,15.60
2022,07,29,04,49,15.60
2022,07,29,04,50,15.60
2022,07,29,04,51,15.60
2022,07,29,04,52,15.60
2022,07,29,04,53,15.70
2022,07,29,04,54,15.70
2022,07,29,04,55,15.70
2022,07,29,04,56,15.70
2022,07,29,04,57,15.70
2022,07,29,04,58,15.70
2022,07,29,04,59,15.70
2022,07,29,05,00,15.70
2022,07,29,05,01,15.70
2022,07,29,05,02,15.70
2022,07,29,05,03,15.70
2022,07,29,05,04,15.70
2022,07,29,05,05,15.70
2022,07,29,05,06,15.70
2022,07,29,05,07,15.70
2022,07,29,05,08,15.70
2022,07,29,05,09,15.70
2022,07,29,05,10,15.60
2022,07,29,05,11,15.60
2022,07,29,05,12,15.60
2022,07,29,05,13,15.60
2022,07,29,05,14,15.60
2022,07,29,05,15,15.60
2022,07,29,05,16,15.60
2022,07,29,05,17,15.60
2022,07,29,05,18,15.60
2022,07,29,05,19,15.60
2022,07,29,05,20,15.60
2022,07,29,05,21,15.60
2022,07,29,05,22,15.60
2022,07,29,05,23,15.60
2022,07,29,05,24,15.60
2022,07,29,05,25,15.70
2022,07,29,05,26,15.70
2022,07,29,05,27,15.70
2022,07,29,05,28,15.70
2022,07,29,05,29,15.70
2022,07,29,05,30,15.70
2022,07,29,05,31,15.70
2022,07,29,05,32,15.70
2022,07,29,05,33,15.70
2022,07,29,05,34,15.70
2022,07,29,05,35,15.70
2022,07,29,05,36,15.70
2022,07,29,05,37,15.70
2022,07,29,05,38,15.70
2022,07,29,05,39,15.60
2022,07,29,05,40,15.60
2022,07,29,05,41,15.60
2022,07,29,05,42,15.60
2022,07,29,05,43,15.60
2022,07,29,05,44,15.60
2022,07,29,05,45,15.60
2022,07,29,05,46,15.60
2022,07,29,05,47,15.60
2022,07,29,05,48,15.50
2022,07,29,05,49,15.60
2022,07,29,05,50,15.50
2022,07,29,05,51,15.50
2022,07,29,05,52,15.50
2022,07,29,05,53,15.60
2022,07,29,05,54,15.60
2022,07,29,05,55,15.60
2022,07,29,05,56,15.60
2022,07,29,05,57,15.60
2022,07,29,05,58,15.60
2022,07,29,05,59,15.60
2022,07,29,06,00,15.50
2022,07,29,06,01,15.50
2022,07,29,06,02,15.50
2022,07,29,06,03,15.50
2022,07,29,06,04,15.50
2022,07,29,06,05,15.50
2022,07,29,06,06,15.50
2022,07,29,06,07,15.50
2022,07,29,06,08,15.50
2022,07,29,06,09,15.50
2022,07,29,06,10,15.50
2022,07,29,06,11,15.50
2022,07,29,06,12,15.50
2022,07,29,06,13,15.50
2022,07,29,06,14,15.50
2022,07,29,06,15,15.40
2022,07,29,06,16,15.40
2022,07,29,06,17,15.40
2022,07,29,06,18,15.40
2022,07,29,06,19,15.40
2022,07,29,06,20,15.40
2022,07,29,06,21,15.40
2022,07,29,06,22,15.40
2022,07,29,06,23,15.40
2022,07,29,06,24,15.40
2022,07,29,06,25,15.40
2022,07,29,06,26,15.40
2022,07,29,06,27,15.40
2022,07,29,06,28,15.40
2022,07,29,06,29,15.40
2022,07,29,06,30,15.40
2022,07,29,06,31,15.40
2022,07,29,06,32,15.40
2022,07,29,06,33,15.40
2022,07,29,06,34,15.40
2022,07,29,06,35,15.40
2022,07,29,06,36,15.40
2022,07,29,06,37,15.40
2022,07,29,06,38,15.40
2022,07,29,06,39,15.30
2022,07,29,06,40,15.30
2022,07,29,06,41,15.30
2022,07,29,06,42,15.30
2022,07,29,06,43,15.30
2022,07,29,06,44,15.30
2022,07,29,06,45,15.30
2022,07,29,06,46,15.30
2022,07,29,06,47,15.40
2022,07,29,06,48,15.40
2022,07,29,06,49,15.40
2022,07,29,06,50,15.40
2022,07,29,06,51,15.40
2022,07,29,06,52,15.40
2022,07,29,06,53,15.40
2022,07,29,06,54,15.40
2022,07,29,06,55,15.40
2022,07,29,06,56,15.50
2022,07,29,06,57,15.50
2022,07,29,06,58,15.50
2022,07,29,06,59,15.60
2022,07,29,07,00,15.60
2022,07,29,07,01,15.70
2022,07,29,07,02,15.70
2022,07,29,07,03,15.80
2022,07,29,07,04,15.90
2022,07,29,07,05,16.00
2022,07,29,07,06,16.00
2022,07,29,07,07,16.10
2022,07,29,07,08,16.20
2022,07,29,07,09,16.30
2022,07,29,07,10,16.40
2022,07,29,07,11,16.50
2022,07,29,07,12,16.60
2022,07,29,07,13,16.70
2022,07,29,07,14,16.80
2022,07,29,07,15,16.90
2022,07,29,07,16,17.00
2022,07,29,07,17,17.10
2022,07,29,07,18,17.20
2022,07,29,07,19,17.30
2022,07,29,07,20,17.40
2022,07,29,07,21,17.50
2022,07,29,07,22,17.60
2022,07,29,07,23,17.70
2022,07,29,07,24,17.90
2022,07,29,07,25,18.00
2022,07,29,07,26,18.10
2022,07,29,07,27,18.30
2022,07,29,07,28,18.40
2022,07,29,07,29,18.50
2022,07,29,07,30,18.70
2022,07,29,07,31,18.80
2022,07,29,07,32,19.00
2022,07,29,07,33,19.10
2022,07,29,07,34,19.20
2022,07,29,07,35,19.30
2022,07,29,07,36,19.40
2022,07,29,07,37,19.60
2022,07,29,07,38,19.70
2022,07,29,07,39,19.80
2022,07,29,07,40,19.80
2022,07,29,07,41,19.90
2022,07,29,07,42,20.10
2022,07,29,07,43,20.10
2022,07,29,07,44,20.20
2022,07,29,07,45,20.30
2022,07,29,07,46,20.30
2022,07,29,07,47,20.40
2022,07,29,07,48,20.40
2022,07,29,07,49,20.50
2022,07,29,07,50,20.50
2022,07,29,07,51,20.60
2022,07,29,07,52,20.70
2022,07,29,07,53,20.70
2022,07,29,07,54,20.70
2022,07,29,07,55,20.80
2022,07,29,07,56,20.80
2022,07,29,07,57,20.90
2022,07,29,07,58,21.00
2022,07,29,07,59,21.10
2022,07,29,08,00,21.10
2022,07,29,08,01,21.20
2022,07,29,08,02,21.30
2022,07,29,08,03,21.40
2022,07,29,08,04,21.50
2022,07,29,08,05,21.60
2022,07,29,08,06,21.70
2022,07,29,08,07,21.80
2022,07,29,08,08,21.80
2022,07,29,08,09,21.90
2022,07,29,08,10,22.00
2022,07,29,08,11,22.10
2022,07,29,08,12,22.10
2022,07,29,08,13,22.20
2022,07,29,08,14,22.30
2022,07,29,08,15,22.40
2022,07,29,08,16,22.50
2022,07,29,08,17,22.50
2022,07,29,08,18,22.60
2022,07,29,08,19,22.70
2022,07,29,08,20,22.80
2022,07,29,08,21,22.90
2022,07,29,08,22,23.00
2022,07,29,08,23,23.10
2022,07,29,08,24,23.30
2022,07,29,08,25,23.40
2022,07,29,08,26,23.50
2022,07,29,08,27,23.60
2022,07,29,08,28,23.60
2022,07,29,08,29,23.70
2022,07,29,08,30,23.80
2022,07,29,08,31,23.80
2022,07,29,08,32,23.90
2022,07,29,08,33,24.00
2022,07,29,08,34,24.00
2022,07,29,08,35,24.10
2022,07,29,08,36,24.20
2022,07,29,08,37,24.30
2022,07,29,08,38,24.30
2022,07,29,08,39,24.40
2022,07,29,08,40,24.50
2022,07,29,08,41,24.60
2022,07,29,08,42,24.70
2022,07,29,08,43,24.80
2022,07,29,08,44,24.80
2022,07,29,08,45,24.90
2022,07,29,08,46,25.00
2022,07,29,08,47,25.10
2022,07,29,08,48,25.20
2022,07,29,08,49,25.30
2022,07,29,08,50,25.40
2022,07,29,08,51,25.50
2022,07,29,08,52,25.60
2022,07,29,08,53,25.60
2022,07,29,08,54,25.80
2022,07,29,08,55,25.90
2022,07,29,08,56,26.00
2022,07,29,08,57,26.10
2022,07,29,08,58,26.20
2022,07,29,08,59,26.30
2022,07,29,09,00,26.40
2022,07,29,09,01,26.50
2022,07,29,09,02,26.60
2022,07,29,09,03,26.70
2022,07,29,09,04,26.80
2022,07,29,09,05,26.90
2022,07,29,09,06,26.90
2022,07,29,09,07,27.00
2022,07,29,09,08,27.10
2022,07,29,09,09,27.20
2022,07,29,09,10,27.30
2022,07,29,09,11,27.40
2022,07,29,09,12,27.50
2022,07,29,09,13,27.60
2022,07,29,09,14,27.70
2022,07,29,09,15,27.70
2022,07,29,09,16,27.80
2022,07,29,09,17,27.80
2022,07,29,09,18,27.80
2022,07,29,09,19,27.90
2022,07,29,09,20,27.90
2022,07,29,09,21,28.00
2022,07,29,09,22,28.00
2022,07,29,09,23,28.00
2022,07,29,09,24,28.00
2022,07,29,09,25,28.00
2022,07,29,09,26,28.00
2022,07,29,09,27,28.00
2022,07,29,09,28,28.00
2022,07,29,09,29,27.90
2022,07,29,09,30,28.00
2022,07,29,09,31,27.90
2022,07,29,09,32,27.90
2022,07,29,09,33,27.90
2022,07,29,09,34,27.90
2022,07,29,09,35,28.00
2022,07,29,09,36,28.00
2022,07,29,09,37,28.00
2022,07,29,09,38,28.00
2022,07,29,09,39,28.00
2022,07,29,09,40,28.10
2022,07,29,09,41,28.10
2022,07,29,09,42,28.20
2022,07,29,09,43,28.20
2022,07,29,09,44,28.30
2022,07,29,09,45,28.30
2022,07,29,09,46,28.40
2022,07,29,09,47,28.40
2022,07,29,09,48,28.40
2022,07,29,09,49,28.40
2022,07,29,09,50,28.50
2022,07,29,09,51,28.50
2022,07,29,09,52,28.50
2022,07,29,09,53,28.50
2022,07,29,09,54,28.50
2022,07,29,09,55,28.40
2022,07,29,09,56,28.40
2022,07,29,09,57,28.40
2022,07,29,09,58,28.40
2022,07,29,09,59,28.40
2022,07,29,10,00,28.50
2022,07,29,10,01,28.50
2022,07,29,10,02,28.60
2022,07,29,10,03,28.60
2022,07,29,10,04,28.70
2022,07,29,10,05,28.70
2022,07,29,10,06,28.70
2022,07,29,10,07,28.70
2022,07,29,10,08,28.70
2022,07,29,10,09,28.70
2022,07,29,10,10,28.70
2022,07,29,10,11,28.70
2022,07,29,10,12,28.70
2022,07,29,10,13,28.70
2022,07,29,10,14,28.70
2022,07,29,10,15,28.70
2022,07,29,10,16,28.60
2022,07,29,10,17,28.70
2022,07,29,10,18,28.70
2022,07,29,10,19,28.60
2022,07,29,10,20,28.70
2022,07,29,10,21,28.80
2022,07,29,10,22,28.80
2022,07,29,10,23,28.80
2022,07,29,10,24,28.90
2022,07,29,10,25,29.00
2022,07,29,10,26,29.00
2022,07,29,10,27,29.00
2022,07,29,10,28,29.00
2022,07,29,10,29,29.00
2022,07,29,10,30,29.00
2022,07,29,10,31,29.00
2022,07,29,10,32,28.90
2022,07,29,10,33,28.90
2022,07,29,10,34,28.80
2022,07,29,10,35,28.80
2022,07,29,10,36,28.90
2022,07,29,10,37,28.80
2022,07,29,10,38,28.80
2022,07,29,10,39,28.80
2022,07,29,10,40,28.80
2022,07,29,10,41,28.80
2022,07,29,10,42,28.80
2022,07,29,10,43,28.80
2022,07,29,10,44,28.80
2022,07,29,10,45,28.80
2022,07,29,10,46,28.90
2022,07,29,10,47,28.80
2022,07,29,10,48,28.70
2022,07,29,10,49,28.70
2022,07,29,10,50,28.80
2022,07,29,10,51,28.80
2022,07,29,10,52,28.80
2022,07,29,10,53,28.90
2022,07,29,10,54,28.90
2022,07,29,10,55,28.90
2022,07,29,10,56,28.90
2022,07,29,10,57,29.00
2022,07,29,10,58,29.10
2022,07,29,10,59,29.10
2022,07,29,11,00,29.10
2022,07,29,11,01,29.10
2022,07,29,11,02,29.10
2022,07,29,11,03,29.10
2022,07,29,11,04,29.10
2022,07,29,11,05,29.10
2022,07,29,11,06,29.10
2022,07,29,11,07,29.00
2022,07,29,11,08,29.10
2022,07,29,11,09,29.00
2022,07,29,11,10,29.00
2022,07,29,11,11,29.00
2022,07,29,11,12,29.00
2022,07,29,11,13,28.90
2022,07,29,11,14,28.90
2022,07,29,11,15,28.90
2022,07,29,11,16,28.90
2022,07,29,11,17,28.90
2022,07,29,11,18,28.80
2022,07,29,11,19,28.90
2022,07,29,11,20,28.90
2022,07,29,11,21,28.80
2022,07,29,11,22,28.80
2022,07,29,11,23,28.90
2022,07,29,11,24,28.80
2022,07,29,11,25,28.90
2022,07,29,11,26,28.90
2022,07,29,11,27,28.90
2022,07,29,11,28,28.90
2022,07,29,11,29,29.00
2022,07,29,11,30,29.10
2022,07,29,11,31,29.10
2022,07,29,11,32,29.20
2022,07,29,11,33,29.30
2022,07,29,11,34,29.30
2022,07,29,11,35,29.30
2022,07,29,11,36,29.40
2022,07,29,11,37,29.50
2022,07,29,11,38,29.50
2022,07,29,11,39,29.50
2022,07,29,11,40,29.50
2022,07,29,11,41,29.60
2022,07,29,11,42,29.60
2022,07,29,11,43,29.60
2022,07,29,11,44,29.60
2022,07,29,11,45,29.70
2022,07,29,11,46,29.60
2022,07,29,11,47,29.70
2022,07,29,11,48,29.70
2022,07,29,11,49,29.70
2022,07,29,11,50,29.60
2022,07,29,11,51,29.60
2022,07,29,11,52,29.60
2022,07,29,11,53,29.70
2022,07,29,11,54,29.70
2022,07,29,11,55,29.70
2022,07,29,11,56,29.70
2022,07,29,11,57,29.70
2022,07,29,11,58,29.80
2022,07,29,11,59,29.80
2022,07,29,12,00,29.80
2022,07,29,12,01,29.80
2022,07,29,12,02,29.80
2022,07,29,12,03,29.80
2022,07,29,12,04,29.70
2022,07,29,12,05,29.70
2022,07,29,12,06,29.70
2022,07,29,12,07,29.60
2022,07,29,12,08,29.60
2022,07,29,12,09,29.60
2022,07,29,12,10,29.70
2022,07,29,12,11,29.70
2022,07,29,12,12,29.70
2022,07,29,12,13,29.70
2022,07,29,12,14,29.80
2022,07,29,12,15,29.80
2022,07,29,12,16,29.80
2022,07,29,12,17,29.80
2022,07,29,12,18,29.80
2022,07,29,12,19,29.80
2022,07,29,12,20,29.90
2022,07,29,12,21,29.90
2022,07,29,12,22,29.90
2022,07,29,12,23,30.00
2022,07,29,12,24,30.10
2022,07,29,12,25,30.10
2022,07,29,12,26,30.10
2022,07,29,12,27,30.10
2022,07,29,12,28,30.20
2022,07,29,12,29,30.30
2022,07,29,12,30,30.30
2022,07,29,12,31,30.30
2022,07,29,12,32,30.30
2022,07,29,12,33,30.30
2022,07,29,12,34,30.40
2022,07,29,12,35,30.40
2022,07,29,12,36,30.40
2022,07,29,12,37,30.40
2022,07,29,12,38,30.50
2022,07,29,12,39,30.50
2022,07,29,12,40,30.50
2022,07,29,12,41,30.50
2022,07,29,12,42,30.50
2022,07,29,12,43,30.50
2022,07,29,12,44,30.50
2022,07,29,12,45,30.50
2022,07,29,12,46,30.50
2022,07,29,12,47,30.50
2022,07,29,12,48,30.50
2022,07,29,12,49,30.50
2022,07,29,12,50,30.50
2022,07,29,12,51,30.50
2022,07,29,12,52,30.40
2022,07,29,12,53,30.50
2022,07,29,12,54,30.50
2022,07,29,12,55,30.40
2022,07,29,12,56,30.40
2022,07,29,12,57,30.50
2022,07,29,12,58,30.40
2022,07,29,12,59,30.50
2022,07,29,13,00,30.50
2022,07,29,13,01,30.50
2022,07,29,13,02,30.50
2022,07,29,13,03,30.50
2022,07,29,13,04,30.50
2022,07,29,13,05,30.60
2022,07,29,13,06,30.60
2022,07,29,13,07,30.60
2022,07,29,13,08,30.60
2022,07,29,13,09,30.60
2022,07,29,13,10,30.60
2022,07,29,13,11,30.60
2022,07,29,13,12,30.70
2022,07,29,13,13,30.70
2022,07,29,13,14,30.70
2022,07,29,13,15,30.70
2022,07,29,13,16,30.70
2022,07,29,13,17,30.70
2022,07,29,13,18,30.70
2022,07,29,13,19,30.70
2022,07,29,13,20,30.80
2022,07,29,13,21,30.80
2022,07,29,13,22,30.80
2022,07,29,13,23,30.80
2022,07,29,13,24,30.80
2022,07,29,13,25,30.80
2022,07,29,13,26,30.80
2022,07,29,13,27,30.80
2022,07,29,13,28,30.80
2022,07,29,13,29,30.80
2022,07,29,13,30,30.80
2022,07,29,13,31,30.80
2022,07,29,13,32,30.80
2022,07,29,13,33,30.80
2022,07,29,13,34,30.80
2022,07,29,13,35,30.80
2022,07,29,13,36,30.90
2022,07,29,13,37,30.90
2022,07,29,13,38,30.90
2022,07,29,13,39,30.90
2022,07,29,13,40,31.00
2022,07,29,13,41,31.00
2022,07,29,13,42,31.00
2022,07,29,13,43,31.00
2022,07,29,13,44,31.00
2022,07,29,13,45,31.10
2022,07,29,13,46,31.10
2022,07,29,13,47,31.10
2022,07,29,13,48,31.20
2022,07,29,13,49,31.20
2022,07,29,13,50,31.20
2022,07,29,13,51,31.30
2022,07,29,13,52,31.30
2022,07,29,13,53,31.30
2022,07,29,13,54,31.40
2022,07,29,13,55,31.40
2022,07,29,13,56,31.40
2022,07,29,13,57,31.40
2022,07,29,13,58,31.40
2022,07,29,13,59,31.50
2022,07,29,14,00,31.50
2022,07,29,14,01,31.50
2022,07,29,14,02,31.60
2022,07,29,14,03,31.60
2022,07,29,14,04,31.60
2022,07,29,14,05,31.60
2022,07,29,14,06,31.60
2022,07,29,14,07,31.60
2022,07,29,14,08,31.70
2022,07,29,14,09,31.70
2022,07,29,14,10,31.70
2022,07,29,14,11,31.60
2022,07,29,14,12,31.60
2022,07,29,14,13,31.60
2022,07,29,14,14,31.70
2022,07,29,14,15,31.70
2022,07,29,14,16,31.70
2022,07,29,14,17,31.70
2022,07,29,14,18,31.80
2022,07,29,14,19,31.80
2022,07,29,14,20,31.90
2022,07,29,14,21,32.00
2022,07,29,14,22,32.00
2022,07,29,14,23,32.10
2022,07,29,14,24,32.10
2022,07,29,14,25,32.10
2022,07,29,14,26,32.10
2022,07,29,14,27,32.00
2022,07,29,14,28,32.00
2022,07,29,14,29,32.00
2022,07,29,14,30,31.90
2022,07,29,14,31,31.90
2022,07,29,14,32,31.90
2022,07,29,14,33,31.90
2022,07,29,14,34,31.90
2022,07,29,14,35,31.90
2022,07,29,14,36,31.90
2022,07,29,14,37,31.90
2022,07,29,14,38,31.90
2022,07,29,14,39,32.00
2022,07,29,14,40,32.00
2022,07,29,14,41,32.00
2022,07,29,14,42,32.00
2022,07,29,14,43,32.00
2022,07,29,14,44,31.90
2022,07,29,14,45,31.90
2022,07,29,14,46,31.90
2022,07,29,14,47,31.90
2022,07,29,14,48,31.90
2022,07,29,14,49,32.00
2022,07,29,14,50,32.00
2022,07,29,14,51,32.10
2022,07,29,14,52,32.10
2022,07,29,14,53,32.10
2022,07,29,14,54,32.20
2022,07,29,14,55,32.20
2022,07,29,14,56,32.20
2022,07,29,14,57,32.30
2022,07,29,14,58,32.30
2022,07,29,14,59,32.20
2022,07,29,15,00,32.30
2022,07,29,15,01,32.30
2022,07,29,15,02,32.30
2022,07,29,15,03,32.30
2022,07,29,15,04,32.30
2022,07,29,15,05,32.30
2022,07,29,15,06,32.30
2022,07,29,15,07,32.30
2022,07,29,15,08,32.40
2022,07,29,15,09,32.40
2022,07,29,15,10,32.40
2022,07,29,15,11,32.40
2022,07,29,15,12,32.40
2022,07,29,15,13,32.40
2022,07,29,15,14,32.40
2022,07,29,15,15,32.40
2022,07,29,15,16,32.40
2022,07,29,15,17,32.40
2022,07,29,15,18,32.40
2022,07,29,15,19,32.40
2022,07,29,15,20,32.50
2022,07,29,15,21,32.50
2022,07,29,15,22,32.60
2022,07,29,15,23,32.70
2022,07,29,15,24,32.70
2022,07,29,15,25,32.80
2022,07,29,15,26,32.80
2022,07,29,15,27,32.80
2022,07,29,15,28,32.80
2022,07,29,15,29,32.80
2022,07,29,15,30,32.80
2022,07,29,15,31,32.80
2022,07,29,15,32,32.90
2022,07,29,15,33,32.90
2022,07,29,15,34,33.00
2022,07,29,15,35,33.00
2022,07,29,15,36,33.00
2022,07,29,15,37,33.10
2022,07,29,15,38,33.10
2022,07,29,15,39,33.10
2022,07,29,15,40,33.10
2022,07,29,15,41,33.00
2022,07,29,15,42,32.90
2022,07,29,15,43,32.90
2022,07,29,15,44,32.80
2022,07,29,15,45,32.80
2022,07,29,15,46,32.80
2022,07,29,15,47,32.80
2022,07,29,15,48,32.80
2022,07,29,15,49,32.80
2022,07,29,15,50,32.80
2022,07,29,15,51,32.80
2022,07,29,15,52,32.90
2022,07,29,15,53,32.90
2022,07,29,15,54,33.00
2022,07,29,15,55,33.00
2022,07,29,15,56,33.10
2022,07,29,15,57,33.10
2022,07,29,15,58,33.20
2022,07,29,15,59,33.20
2022,07,29,16,00,33.30
2022,07,29,16,01,33.30
2022,07,29,16,02,33.40
2022,07,29,16,03,33.40
2022,07,29,16,04,33.40
2022,07,29,16,05,33.40
2022,07,29,16,06,33.40
2022,07,29,16,07,33.30
2022,07,29,16,08,33.30
2022,07,29,16,09,33.20
2022,07,29,16,10,33.20
2022,07,29,16,11,33.20
2022,07,29,16,12,33.20
2022,07,29,16,13,33.20
2022,07,29,16,14,33.20
2022,07,29,16,15,33.20
2022,07,29,16,16,33.20
2022,07,29,16,17,33.20
2022,07,29,16,18,33.20
2022,07,29,16,19,33.20
2022,07,29,16,20,33.20
2022,07,29,16,21,33.20
2022,07,29,16,22,33.20
2022,07,29,16,23,33.20
2022,07,29,16,24,33.20
2022,07,29,16,25,33.20
2022,07,29,16,26,33.20
2022,07,29,16,27,33.20
2022,07,29,16,28,33.20
2022,07,29,16,29,33.10
2022,07,29,16,30,33.10
2022,07,29,16,31,33.00
2022,07,29,16,32,32.90
2022,07,29,16,33,32.90
2022,07,29,16,34,32.90
2022,07,29,16,35,32.90
2022,07,29,16,36,32.90
2022,07,29,16,37,32.90
2022,07,29,16,38,32.90
2022,07,29,16,39,32.90
2022,07,29,16,40,32.80
2022,07,29,16,41,32.70
2022,07,29,16,42,32.70
2022,07,29,16,43,32.70
2022,07,29,16,44,32.60
2022,07,29,16,45,32.60
2022,07,29,16,46,32.60
2022,07,29,16,47,32.60
2022,07,29,16,48,32.70
2022,07,29,16,49,32.70
2022,07,29,16,50,32.70
2022,07,29,16,51,32.70
2022,07,29,16,52,32.70
2022,07,29,16,53,32.70
2022,07,29,16,54,32.70
2022,07,29,16,55,32.70
2022,07,29,16,56,32.70
2022,07,29,16,57,32.70
2022,07,29,16,58,32.70
2022,07,29,16,59,32.80
2022,07,29,17,00,32.80
2022,07,29,17,01,32.90
2022,07,29,17,02,32.90
2022,07,29,17,03,33.00
2022,07,29,17,04,33.00
2022,07,29,17,05,33.10
2022,07,29,17,06,33.10
2022,07,29,17,07,33.20
2022,07,29,17,08,33.20
2022,07,29,17,09,33.20
2022,07,29,17,10,33.20
2022,07,29,17,11,33.20
2022,07,29,17,12,33.20
2022,07,29,17,13,33.20
2022,07,29,17,14,33.20
2022,07,29,17,15,33.10
2022,07,29,17,16,33.10
2022,07,29,17,17,33.10
2022,07,29,17,18,33.10
2022,07,29,17,19,33.10